User: anonymous   Login
Location: Pilipovskiye Korichintsy
(49.1833°N, 27.4667°E)
Time: 09:35:46
(UTC+00:00)
Language:

Cosmos 2322 Rocket - Orbit

View from above orbital plane
View from above orbital plane
View from above satellite
View from above satellite

Ground track
Ground track

The orbit data is extracted from the following two-line orbital elements,

1 23705U 95058B   20269.81971253 +.00000215 +00000-0 +13528-3 0  9999
2 23705 071.0242 038.3683 0014719 273.7206 086.2233 14.15141536286174
Epoch (UTC): 25 September 2020 19:40:23
Eccentricity: 0.0014719
inclination: 71.0242°
perigee height: 831 km
apogee height: 852 km
right ascension of ascending node: 38.3683°
argument of perigee: 273.7206°
revolutions per day: 14.15141536
mean anomaly at epoch: 86.2233°
orbit number at epoch: 28617

The dashed part of the orbit path shows where the satellite is in the earth's shadow,  

DLR